Regional Weather Roundup
Issued by NWS

Home | Current Version | Previous Version | Text Only | Print | Product List | Glossary On
Versions: 1 2 3 4 5 6 7 8 9 10 11 12 13 14 15 16 17 18 19 20 21 22 23 24 25 26 27 28 29 30 31 32 33 34 35 36 37 38 39 40 41 42 43 44 45 46 47 48 49 50
000
ASUS43 KDTX 011301
RWRMI
MICHIGAN HOURLY REGIONAL WEATHER ROUNDUP
NATIONAL WEATHER SERVICE DETROIT/PONTIAC MI
900 AM EDT SUN MAY 01 2016

NOTE: "FAIR" INDICATES FEW OR NO CLOUDS BELOW 12,000 FEET WITH NO
SIGNIFICANT WEATHER AND/OR OBSTRUCTION TO VISIBILITY.

MIZ047>049-052>055-059>063-066>070-074>076-081>083-011400-
SOUTHEAST LOWER MICHIGAN

CITY           SKY/WX    TMP DP  RH WIND       PRES   REMARKS
ADRIAN         FOG       49  48  97 NE8       29.94R VSB 1
ALMA           CLOUDY    43  43  99 NE9       30.01R FOG
ANN ARBOR      CLOUDY    48  47  96 NE8       29.95R FOG
BAD AXE        CLOUDY    43  43  99 NE9       30.01F
CARO           LGT RAIN  44  43  96 NE6       29.99S
DETROIT CITY   CLOUDY    48  46  93 NE7       29.95R FOG
DETROIT        DRIZZLE   49  48  97 NE7       29.96R FOG
FLINT          CLOUDY    48  44  86 NE8       29.98S FOG
GROSSE ILE     CLOUDY    48  46  93 NE6       29.94R FOG
HILLSDALE      CLOUDY    48  48 100 E3        29.94R FOG
HOWELL         CLOUDY    46  46 100 NE6       29.95S FOG

CITY           SKY/WX    TMP DP  RH WIND       PRES   REMARKS
JACKSON        CLOUDY    47  46  97 N7        29.95R FOG
LAMBERTVILLE   FOG       50  49  95 NE3       29.94S VSB 1/4
LANSING        CLOUDY    45  44  97 NE9       29.97S FOG
LAPEER         DRIZZLE   44  43  97 NE7       29.98S
MASON          CLOUDY    46  44  95 NE6       29.96S FOG
MONROE         FOG       49  49 100 NE5       29.94R VSB 3/4
MT. CLEMENS    CLOUDY    48  48  99 NE8       29.93F FOG
PONTIAC        LGT RAIN  47  46  97 NE6       29.94R VSB 1
PORT HOPE        N/A     42  40  92 NE17      30.01S
PORT HURON     DRIZZLE   45  45 100 NE8       29.96F
TRI CITIES     LGT RAIN  47  43  86 NE17      30.01R VSB 1
MIDLAND        DRIZZLE   44  43  97 NE7       30.01S
TROY           CLOUDY    48  47  98 N7        29.96S FOG
SAGINAW HB     CLOUDY    45  43  93 NE13      30.00R FOG
$$
MIZ043>046-050>051-056>058-064>065-071>073-077>080-011400-
SOUTHWEST LOWER MICHIGAN

CITY           SKY/WX    TMP DP  RH WIND       PRES   REMARKS
BATTLE CREEK   CLOUDY    46  45  96 N9        29.96R FOG
BENTON HARBOR  CLOUDY    49  46  90 NE6       29.96R FOG
BIG RAPIDS     LGT RAIN  43  39  87 NE6       30.02R
COLDWATER      CLOUDY    48  48 100 N7        29.93S FOG
FREMONT        CLOUDY    45  44  95 NE7       30.01R
HOLLAND        CLOUDY    47  45  93 NE9       29.98R FOG
GRAND RAPIDS   LGT RAIN  47  45  93 NE9       29.99R FOG
IONIA          LGT RAIN  44  44  99 NE15      29.98R
KALAMAZOO      CLOUDY    47  44  90 NE5       29.95R FOG
LUDINGTON      DRIZZLE   44  39  81 N6        30.05R
MARSHALL       CLOUDY    47  46  97 NE6       29.94R FOG
MOUNT PLEASANT DRIZZLE   43  43  98 NE9       30.01R
MUSKEGON       CLOUDY    48  43  82 NE12      30.00S
$$
MIZ016>042-011400-
NORTHERN LOWER MICHIGAN

CITY           SKY/WX    TMP DP  RH WIND       PRES   REMARKS
ALPENA         LGT RAIN  44  39  82 NE5       30.10R
BEAVER ISLAND  CLOUDY    46  34  63 NE8       30.12R
BELLAIRE       FLURRIES  46  40  78 E3        30.09R
CADILLAC       LGT RAIN  42  37  80 NE9       30.04R
CHARLEVOIX     CLOUDY    47  33  58 E3        30.12S
FRANKFORT      CLOUDY    46  40  80 SE7       30.06F
GAYLORD        CLOUDY    46  36  68 E6        30.07R
HARBOR SPRINGS CLOUDY    47  32  55 NE8       30.10R
HOUGHTON LAKE  CLOUDY    45  38  76 NE10      30.05R
MANISTEE       CLOUDY    45  34  65 NE8       30.07R
OSCODA         LGT SNOW  43  40  89 NE13      30.05S
PELLSTON       CLOUDY    48  32  53 E13       30.11R
ROGERS CITY    CLOUDY    42  34  72 E3        30.12R
TRAVERSE CITY  LGT RAIN  47  40  76 E9        30.07S
$$
MIZ007>008-015-011400-
EASTERN UPPER MICHIGAN

CITY           SKY/WX    TMP DP  RH WIND       PRES   REMARKS
KINROSS          N/A     46  34  61 NE14      30.12R
MACKINAC ISLAN PTSUNNY   46  32  58 NE9       30.11R
NEWBERRY       MOSUNNY   43  35  75 N5        30.13S
S. S. MARIE    MOSUNNY   48  31  51 NE8       30.13S
MUNISING         N/A     40  37  89 N7        30.15R
$$
MIZ004>006-011>014-085-011400-
CENTRAL UPPER MICHIGAN

CITY           SKY/WX    TMP DP  RH WIND       PRES   REMARKS
MANISTIQUE     CLOUDY    44  34  67 NE8       30.12R
ESCANABA       PTSUNNY   46  34  61 NE9       30.12S
MENOMINEE      CLOUDY    43  34  70 N7        30.11R
SAWYER-GWINN   SUNNY     39  34  81 NE13      30.16R WCI  32
$$
MIZ001>003-009>011-084-011400-
WESTERN UPPER MICHIGAN

CITY           SKY/WX    TMP DP  RH WIND       PRES   REMARKS
IRON MOUNTAIN  CLOUDY    43  34  70 N10       30.12S
HOUGHTON       CLOUDY    43  34  70 E10       30.20R
COPPER HARBOR    N/A     41  38  89 NE3       30.23R
IRONWOOD         N/A     37  37 100 NE5       30.18S WCI  34
$$

ABBREVIATIONS USED IN REMARKS
   TC - TEMPERATURE IN CELSIUS
  WCI - WIND CHILL INDEX
   HX - HEAT INDEX
  VSB - VISIBILITY





USA.gov is the U.S. government's official web portal to all federal, state and local government web resources and services.